TimeEST,TemperatureF,Dew PointF,Humidity,Sea Level PressureIn,VisibilityMPH,Wind Direction,Wind SpeedMPH,Gust SpeedMPH,PrecipitationIn,Events,Conditions,WindDirDegrees,DateUTC
12:18 AM,66.2,64.4,94,30.19,8.0,NNE,5.8,-,N/A,,Overcast,20,2013-11-06 05:18:00
12:53 AM,66.9,64.0,90,30.18,7.0,NNE,6.9,-,N/A,,Overcast,30,2013-11-06 05:53:00
1:28 AM,66.2,64.4,94,30.17,6.0,NNE,8.1,-,N/A,,Overcast,30,2013-11-06 06:28:00
1:53 AM,66.9,64.0,90,30.16,6.0,NNE,9.2,-,N/A,,Overcast,30,2013-11-06 06:53:00
2:00 AM,66.2,64.4,94,30.16,6.0,NNE,9.2,-,N/A,,Overcast,30,2013-11-06 07:00:00
2:09 AM,66.2,64.4,94,30.16,6.0,NNE,8.1,-,N/A,,Overcast,30,2013-11-06 07:09:00
2:53 AM,66.9,64.0,90,30.14,6.0,NE,5.8,-,N/A,,Overcast,40,2013-11-06 07:53:00
3:03 AM,66.2,64.4,94,30.15,6.0,NNE,5.8,-,N/A,,Overcast,30,2013-11-06 08:03:00
3:53 AM,66.9,64.0,90,30.14,7.0,NNE,6.9,-,N/A,,Overcast,30,2013-11-06 08:53:00
4:26 AM,66.2,62.6,88,30.14,6.0,NNE,6.9,-,N/A,,Overcast,30,2013-11-06 09:26:00
4:34 AM,66.2,62.6,88,30.14,6.0,NNE,8.1,-,N/A,,Overcast,20,2013-11-06 09:34:00
4:53 AM,66.0,64.0,93,30.14,5.0,NNE,8.1,-,N/A,,Overcast,20,2013-11-06 09:53:00
5:53 AM,66.9,64.0,90,30.14,6.0,NNE,9.2,-,N/A,,Overcast,20,2013-11-06 10:53:00
6:51 AM,66.2,64.4,94,30.17,6.0,NNE,6.9,-,N/A,,Overcast,30,2013-11-06 11:51:00
6:53 AM,66.9,64.0,90,30.17,6.0,NNE,5.8,-,N/A,,Overcast,30,2013-11-06 11:53:00
7:53 AM,68.0,64.9,90,30.18,5.0,NE,9.2,-,N/A,,Overcast,40,2013-11-06 12:53:00
8:53 AM,70.0,64.9,84,30.18,7.0,NE,10.4,-,N/A,,Overcast,50,2013-11-06 13:53:00
9:53 AM,75.0,64.9,71,30.18,10.0,NNE,6.9,-,N/A,,Scattered Clouds,20,2013-11-06 14:53:00
10:43 AM,75.2,64.4,69,30.18,10.0,NE,6.9,-,N/A,,Mostly Cloudy,50,2013-11-06 15:43:00
10:53 AM,77.0,64.9,66,30.17,10.0,ENE,6.9,-,N/A,,Mostly Cloudy,60,2013-11-06 15:53:00
11:19 AM,77.0,64.4,65,30.17,10.0,ENE,10.4,-,N/A,,Overcast,70,2013-11-06 16:19:00
11:53 AM,78.1,64.9,64,30.15,10.0,NE,9.2,-,N/A,,Overcast,40,2013-11-06 16:53:00
12:53 PM,73.9,68.0,82,30.13,10.0,ENE,8.1,-,0.02,,Overcast,60,2013-11-06 17:53:00
1:53 PM,78.1,66.0,66,30.11,10.0,NE,9.2,-,N/A,,Overcast,50,2013-11-06 18:53:00
2:53 PM,79.0,66.0,64,30.10,10.0,NE,8.1,-,N/A,,Mostly Cloudy,40,2013-11-06 19:53:00
3:53 PM,79.0,66.0,64,30.09,10.0,ENE,5.8,-,N/A,,Overcast,70,2013-11-06 20:53:00
4:53 PM,75.9,64.9,69,30.09,10.0,ESE,4.6,-,N/A,,Partly Cloudy,120,2013-11-06 21:53:00
5:53 PM,73.9,66.9,79,30.09,10.0,Calm,Calm,-,N/A,,Overcast,0,2013-11-06 22:53:00
6:53 PM,71.1,66.0,84,30.10,10.0,Calm,Calm,-,N/A,,Scattered Clouds,0,2013-11-06 23:53:00
7:53 PM,69.1,64.9,87,30.10,10.0,Calm,Calm,-,N/A,,Partly Cloudy,0,2013-11-07 00:53:00
8:53 PM,69.1,64.9,87,30.10,10.0,NE,4.6,-,N/A,,Clear,50,2013-11-07 01:53:00
9:53 PM,69.1,64.9,87,30.10,7.0,NNE,3.5,-,N/A,,Clear,30,2013-11-07 02:53:00
10:44 PM,68.0,64.4,88,30.11,7.0,Calm,Calm,-,N/A,,Scattered Clouds,0,2013-11-07 03:44:00
10:53 PM,68.0,64.9,90,30.10,7.0,NNE,3.5,-,N/A,,Mostly Cloudy,20,2013-11-07 03:53:00
11:53 PM,69.1,66.0,90,30.09,5.0,ENE,3.5,-,N/A,,Overcast,60,2013-11-07 04:53:00